Flag for USA

Past Weather in Point Washington Wildlife Management Area, Florida, USA — Yesterday and Last 2 Weeks

Now
88 °F

Sunny.


Feels Like: 101 °F
Forecast: 93 / 77 °F
Wind: 9 mph from West

Location: Tyndall Air Force Base

Current Time: Jun 25, 2019 at 7:13:37 pm

Latest Report: Jun 25, 2019 at 5:56 pm


Visibility: 10 mi

Pressure: 30.03 "Hg

Humidity: 72%

Dew Point: 78 °F

Location of Point Washington Wildlife Management AreaLocation

Past Weather in Point Washington Wildlife Management Area — Graph

°F

Point Washington Wildlife Management Area Temperature Yesterday

Maximum temperature yesterday: 90 °F (at 2:56 pm)
Minimum temperature yesterday: 82 °F (at 4:56 am)
Average temperature yesterday: 86 °F

High & Low Weather Summary for the Past Weeks

 TemperatureHumidityPressure
High90 °F (Jun 25, 1:56 pm)100% (Jun 16, 5:21 am)30.14 "Hg (Jun 16, 5:21 am)
Low71 °F (Jun 14, 3:56 am)42% (Jun 14, 12:56 pm)29.87 "Hg (Jun 19, 5:56 pm)
Average82 °F78%30.00 "Hg
* Reported Jun 10 5:56 pm — Jun 25 5:56 pm, Point Washington Wildlife Management Area. Weather by CustomWeather, © 2019

Note: Actual official high and low records may vary slightly from our data, if they occured in-between our weather recording intervals... More about our weather records

Advertising

Point Washington Wildlife Management Area Weather History for the Previous 24 Hours

Scroll right to see more
 ConditionsComfort  
Time TempWeatherWind HumidityBarometerVisibility
5:56 pm
Tue, Jun 25
88 °FSunny.9 mph72%30.03 "Hg10 mi
4:56 pm89 °FPassing clouds.9 mph70%30.03 "Hg10 mi
3:56 pm87 °FScattered clouds.10 mph73%30.04 "Hg10 mi
2:56 pm90 °FSunny.12 mph65%30.05 "Hg10 mi
1:56 pm90 °FBroken clouds.8 mph65%30.07 "Hg10 mi
12:56 pm89 °FBroken clouds.12 mph68%30.07 "Hg10 mi
11:56 am89 °FScattered clouds.10 mph71%30.08 "Hg10 mi
10:56 am89 °FScattered clouds.12 mph72%30.08 "Hg10 mi
10:21 am88 °FScattered clouds.13 mph75%30.08 "Hg10 mi
9:56 am88 °FScattered clouds.10 mph75%30.07 "Hg10 mi
9:36 am88 °FPartly sunny.10 mph75%30.08 "Hg10 mi
8:56 am87 °FPassing clouds.10 mph75%30.08 "Hg10 mi
8:31 am86 °FPassing clouds.12 mph79%30.08 "Hg10 mi
7:56 am86 °FPassing clouds.14 mph77%30.08 "Hg10 mi
6:56 am84 °FSunny.9 mph82%30.06 "Hg10 mi
5:56 am83 °FSunny.10 mph83%30.05 "Hg5 mi
4:56 am83 °FSunny.9 mph84%30.03 "Hg6 mi
3:56 am84 °FClear.9 mph86%30.02 "Hg6 mi
2:56 am84 °FClear.10 mph83%30.01 "Hg6 mi
1:56 am84 °FClear.9 mph83%30.00 "Hg6 mi
12:56 am84 °FClear.9 mph83%30.00 "Hg6 mi
11:56 pm
Mon, Jun 24
84 °FClear.10 mph83%30.01 "Hg6 mi
10:56 pm84 °FClear.9 mph84%30.02 "Hg6 mi
9:56 pm84 °FClear.9 mph83%30.02 "Hg6 mi
8:56 pm84 °FClear.9 mph82%30.01 "Hg6 mi
7:56 pm85 °FClear.12 mph81%29.98 "Hg5 mi
Weather by CustomWeather, © 2019

See weather overview